[[{"header":{"parameterUnit":"m.s-1","parameterCategory":1,"la1":30.2991,"la2":30.254,"lo1":-89.0895,"lo2":-89.0444,"dy":0.0017,"dx":0.0017,"nx":28,"ny":28,"refTime":"2024-05-04T03:00:00:Z","depth":0,"parameterNumber":2,"parameterNumberName":"U-component_of_WINDS"},"data":[0,0,0,0,0,0,0,0,0,0,0,0,0,0,0,0,0,0,0,0,0,0,0,0,0,0,0,0,0,0,0,0,0,0,0,0,0,0,0,0,0,0,0,0,0,0,0,0,0,0,0,0,0,0,0,0,0,0,-2.9335,-2.9335,0,-2.9348,-2.9348,-2.9348,-2.9314,-2.9313,-2.9311,-2.931,-2.9324,-2.9325,-2.9326,0,0,0,0,0,0,0,0,0,0,0,0,0,-2.928,-2.9281,-2.9335,-2.9335,-2.9335,-2.9348,-2.9348,-2.9348,-2.9314,-2.9313,-2.9311,-2.931,-2.9323,-2.9325,-2.9326,0,0,0,0,0,0,0,0,0,0,0,0,0,-2.93,-2.9281,-2.9335,-2.9319,-2.9318,-2.9348,-2.9348,-2.9348,-2.9314,-2.9312,-2.9311,-2.9309,-2.9323,-2.9325,-2.9327,-2.9372,0,0,-2.9333,-2.9334,0,0,0,0,0,0,0,0,-2.9298,-2.9302,-2.9321,-2.932,-2.9319,-2.9328,-2.9334,-2.9356,-2.9315,-2.9316,-2.931,-2.9309,-2.9326,-2.9328,-2.9334,-2.9372,-2.9373,-2.9333,-2.9334,-2.9335,-2.9336,0,0,0,0,0,0,0,-2.9297,-2.9301,-2.934,-2.9322,-2.932,-2.9312,-2.9313,-2.9338,-2.933,-2.9315,-2.9313,-2.9315,-2.9325,-2.9332,-2.9334,-2.9373,-2.9333,-2.9335,-2.9336,-2.9337,-2.9451,-2.9453,0,0,0,0,0,0,-2.9298,-2.93,-2.9339,-2.934,-2.9305,-2.9314,-2.9315,-2.9326,-2.9329,-2.9328,-2.9316,-2.9313,-2.9329,-2.9332,-2.9334,-2.9388,-2.9335,-2.9337,-2.9338,-2.9449,-2.9452,-2.9454,0,0,0,0,0,0,-2.9297,-2.9302,-2.9339,-2.9319,-2.9324,-2.9317,-2.933,-2.9328,-2.9334,-2.933,-2.9329,-2.9325,-2.9328,-2.9331,-2.9363,-2.9388,-2.9338,-2.934,-2.9447,-2.945,-2.9453,-2.9495,0,0,0,0,0,0,-2.9295,-2.9301,-2.9318,-2.932,-2.9325,-2.9367,-2.9331,-2.9329,-2.9338,-2.9334,-2.9338,-2.9337,-2.9327,-2.936,-2.9365,-2.939,-2.9341,-2.9445,-2.9449,-2.9452,-2.9491,-2.9499,-2.9505,0,0,0,0,0,-2.9293,-2.9329,-2.9319,-2.9324,-2.9345,-2.9369,-2.9371,-2.936,-2.934,-2.9357,-2.9355,-2.9336,-2.9385,-2.9364,-2.9369,-2.9395,-2.9443,-2.9448,-2.9451,-2.9488,-2.9497,-2.9505,0,0,0,0,0,0,-2.9329,-2.9329,-2.9318,-2.9355,-2.9362,-2.9363,-2.9383,-2.937,-2.9382,-2.9378,-2.9363,-2.9365,-2.9399,-2.94,-2.9377,-2.9439,-2.9411,-2.9416,-2.9437,-2.9446,-2.9453,-2.9451,-2.9343,0,0,0,0,0,-2.9341,-2.936,-2.9359,-2.9392,-2.9396,-2.939,-2.9399,-2.939,-2.9397,-2.94,-2.94,-2.9407,-2.9424,-2.9435,-2.945,-2.9492,-2.9493,-2.9513,-2.952,-2.9525,-2.953,-2.9553,-2.9562,-2.9467,-2.9467,-2.9467,0,0,-2.9366,-2.9369,-2.9381,-2.9399,-2.9404,-2.9424,-2.9392,-2.9414,-2.9429,-2.9403,-2.9433,-2.9434,-2.9441,-2.9478,-2.9495,-2.948,-2.9557,-2.9531,-2.9535,-2.9536,-2.9558,-2.9567,-2.9575,-2.947,-2.9469,-2.9469,0,0,-2.9422,-2.9426,-2.9454,-2.946,-2.9468,-2.9464,-2.9471,-2.9474,-2.9474,-2.9504,-2.9485,-2.9503,-2.9532,-2.9538,-2.9546,-2.9608,-2.9591,-2.9613,-2.9649,-2.9672,-2.9679,-2.9686,-2.9708,-2.9716,-2.9618,-2.9618,-2.9618,0,-2.9452,-2.9481,-2.947,-2.9494,-2.9503,-2.9482,-2.9511,-2.9517,-2.953,-2.9536,-2.952,-2.9558,-2.9561,-2.96,-2.9616,-2.9622,-2.963,-2.9612,-2.9679,-2.9685,-2.9691,-2.9712,-2.9721,-2.962,-2.962,-2.962,-2.962,0,-2.9518,-2.9539,-2.9561,-2.9575,-2.9586,-2.9613,-2.9606,-2.962,-2.9611,-2.9609,-2.9641,-2.9644,-2.9661,-2.967,-2.966,-2.9708,-2.9699,-2.9682,-2.9652,-2.9703,-2.9722,-2.973,-2.9624,-2.9623,-2.9622,-2.9622,0,0,-2.9593,-2.9603,-2.9611,-2.9617,-2.9626,-2.9642,-2.9669,-2.9685,-2.9697,-2.9708,-2.9729,-2.9756,-2.9741,-2.9749,-2.9741,-2.9761,-2.9811,-2.9741,-2.9741,-2.9753,-2.9864,-2.9876,-2.9885,-2.9801,-2.9802,-2.9803,-2.9863,0,-2.9648,-2.9693,-2.9686,-2.973,-2.975,-2.9731,-2.9755,-2.9763,-2.9762,-2.9779,-2.9779,-2.9798,-2.9776,-2.9781,-2.9801,-2.98,-2.9832,-2.9796,-2.9821,-2.9822,-2.9818,-2.9895,-2.9908,-2.9963,-2.987,-2.9872,-2.9872,0,-2.9717,-2.9732,-2.9778,-2.9785,-2.9793,-2.9814,-2.983,-2.9847,-2.9856,-2.9855,-2.9865,-2.9854,-2.9881,-2.9853,-2.9891,-2.9866,-2.9877,-2.9878,-2.988,-2.9881,-2.9849,-2.9897,-2.9981,-2.9989,-2.9884,-2.9883,-2.9882,0,-2.9768,-2.9798,-2.983,-2.9836,-2.9846,-2.9861,-2.9866,-2.9874,-2.9885,-2.9899,-2.9906,-2.9924,-2.9933,-2.9946,-2.994,-2.9921,-2.9979,-2.995,-2.9978,-2.9979,-2.999,-2.9989,-3.0075,-2.9999,-2.9998,-2.9998,-2.9998,0,-2.9829,-2.9858,-2.9853,-2.9872,-2.9905,-2.9897,-2.9929,-2.9932,-2.994,-2.996,-2.9945,-2.9964,-2.9956,-2.9975,-2.9971,-3.0003,-3.0007,-3.0006,-3.0005,-3.0007,-3.0007,-3.0012,-3.0008,-3.0,-3.0,-3.0,-2.9999,0,-2.9889,-2.9887,-2.9921,-2.9928,-2.9931,-2.9954,-2.996,-2.9979,-2.9979,-3.0004,-3.001,-3.0009,-3.0031,-3.0027,-3.0051,-3.0048,-3.0088,-3.0082,-3.0085,-3.0083,-3.0111,-3.0108,-3.0202,-3.0214,-3.0131,-3.0132,-3.0132,0,-2.9928,-2.995,-2.996,-2.9973,-2.9979,-3.0,-3.0011,-3.0005,-3.0018,-3.0033,-3.005,-3.007,-3.0086,-3.0122,-3.0124,-3.0142,-3.0136,-3.0168,-3.0138,-3.0141,-3.0136,-3.0134,-3.0136,-3.0173,-3.0174,-3.0175,-3.0176,0,-2.9996,-2.9995,-3.0013,-3.0031,-3.0046,-3.006,-3.0072,-3.0084,-3.0079,-3.0095,-3.0117,-3.013,-3.0155,-3.0176,-3.0194,-3.0199,-3.0187,-3.0185,-3.0193,-3.0194,-3.0195,-3.0195,-3.0099,-3.0183,-3.0182,-3.0181,-3.0181,-3.0181,-3.0046,-3.0066,-3.0076,-3.0097,-3.0107,-3.0119,-3.0138,-3.0141,-3.0159,-3.018,-3.0175,-3.0201,-3.0212,-3.0235,-3.0242,-3.0262,-3.025,-3.0261,-3.0263,-3.0266,-3.0269,-3.0193,-3.0266,-3.0265,-3.0265,-3.0265,-3.0265,0,-3.0114,-3.0121,-3.014,-3.0159,-3.0176,-3.0165,-3.0179,-3.0193,-3.0216,-3.0228,-3.0245,-3.0271,-3.0292,-3.0297,-3.0317,-3.0332,-3.0327,-3.0337,-3.0335,-3.0337,-3.0279,-3.027,-3.0341,-3.0341,-3.0341,-3.0341,-3.0341,-3.0341,-3.0151,-3.0183,-3.0184,-3.0221,-3.0227,-3.0253,-3.0262,-3.0274,-3.0283,-3.0314,-3.0331,-3.0335,-3.0344,-3.0365,-3.0384,-3.0384,-3.0392,-3.0405,-3.0403,-3.0348,-3.0341,-3.0333,-3.0325,-3.0407,-3.0407,-3.0459,-3.046,-3.046]},{"header":{"parameterUnit":"m.s-1","parameterCategory":1,"la1":30.2991,"la2":30.254,"lo1":-89.0895,"lo2":-89.0444,"dy":0.0017,"dx":0.0017,"nx":28,"ny":28,"refTime":"2024-05-04T03:00:00:Z","depth":0,"parameterNumber":3,"parameterNumberName":"V-component_of_WINDS"},"data":[0,0,0,0,0,0,0,0,0,0,0,0,0,0,0,0,0,0,0,0,0,0,0,0,0,0,0,0,0,0,0,0,0,0,0,0,0,0,0,0,0,0,0,0,0,0,0,0,0,0,0,0,0,0,0,0,0,0,2.602,2.602,0,2.6009,2.6009,2.6008,2.6025,2.6025,2.6026,2.6026,2.6009,2.6008,2.6007,0,0,0,0,0,0,0,0,0,0,0,0,0,2.6051,2.6051,2.602,2.602,2.602,2.6009,2.6009,2.6008,2.6025,2.6025,2.6026,2.6027,2.6009,2.6008,2.6007,0,0,0,0,0,0,0,0,0,0,0,0,0,2.6038,2.605,2.602,2.6027,2.6027,2.6009,2.6009,2.6008,2.6024,2.6025,2.6026,2.6027,2.601,2.6008,2.6007,2.598,0,0,2.6002,2.6001,0,0,0,0,0,0,0,0,2.6039,2.6037,2.6026,2.6026,2.6027,2.6019,2.6013,2.5999,2.6024,2.6025,2.6026,2.6027,2.6011,2.601,2.6005,2.5979,2.5978,2.6002,2.6001,2.6,2.6,0,0,0,0,0,0,0,2.604,2.6038,2.6015,2.6025,2.6026,2.6029,2.6028,2.6011,2.6013,2.6025,2.6026,2.6025,2.6012,2.6007,2.6005,2.5978,2.6002,2.6001,2.6,2.5999,2.5931,2.593,0,0,0,0,0,0,2.6041,2.6038,2.6016,2.6015,2.6035,2.6028,2.6027,2.6021,2.6013,2.6013,2.6024,2.6026,2.6009,2.6007,2.6005,2.5974,2.6,2.5999,2.5998,2.5932,2.5931,2.593,0,0,0,0,0,0,2.6041,2.6039,2.6016,2.6027,2.6025,2.6026,2.6019,2.602,2.6015,2.6013,2.6013,2.6019,2.601,2.6007,2.5987,2.5973,2.5998,2.5997,2.5933,2.5931,2.593,2.5911,0,0,0,0,0,0,2.6042,2.6039,2.6029,2.6027,2.6024,2.5999,2.6018,2.6019,2.6013,2.6015,2.6008,2.6008,2.601,2.5989,2.5985,2.5972,2.5996,2.5934,2.5932,2.5931,2.5913,2.591,2.5906,0,0,0,0,0,2.6043,2.6022,2.6029,2.6026,2.6012,2.5999,2.5997,2.6001,2.6012,2.6002,2.6001,2.6008,2.5976,2.5987,2.5983,2.5969,2.5935,2.5933,2.5931,2.5915,2.591,2.5907,0,0,0,0,0,0,2.602,2.6022,2.6029,2.6007,2.6003,2.6001,2.5989,2.5996,2.5987,2.5989,2.5994,2.5992,2.5971,2.5968,2.598,2.5943,2.5957,2.5954,2.5946,2.5942,2.5939,2.5939,2.5994,0,0,0,0,0,2.6013,2.6004,2.6005,2.5985,2.5983,2.5987,2.5981,2.5985,2.598,2.5978,2.5975,2.5969,2.5958,2.5949,2.5939,2.5913,2.5912,2.5902,2.5898,2.5896,2.5893,2.5881,2.5876,2.5923,2.5923,2.5923,0,0,2.5997,2.5997,2.599,2.5981,2.5978,2.5967,2.5985,2.5972,2.5963,2.5975,2.5957,2.5955,2.5948,2.5926,2.5916,2.5923,2.588,2.5893,2.5891,2.5889,2.5878,2.5874,2.587,2.5922,2.5922,2.5922,0,0,2.5963,2.5962,2.5946,2.5944,2.5941,2.5944,2.594,2.5939,2.5939,2.5921,2.593,2.592,2.59,2.5895,2.589,2.5858,2.5864,2.5854,2.5836,2.5824,2.5821,2.5817,2.5806,2.5802,2.5851,2.5851,2.5851,0,2.5942,2.5928,2.5937,2.5924,2.592,2.5934,2.5918,2.5915,2.5907,2.5904,2.5912,2.5889,2.5885,2.5863,2.5856,2.5851,2.5847,2.5854,2.5821,2.5818,2.5815,2.5804,2.58,2.585,2.585,2.585,2.585,0,2.5904,2.5894,2.5882,2.5878,2.5872,2.5858,2.5864,2.5857,2.5863,2.5865,2.5847,2.5844,2.5834,2.5829,2.5832,2.5807,2.5812,2.582,2.5834,2.5809,2.5799,2.5795,2.5848,2.5849,2.5849,2.585,0,0,2.5852,2.5856,2.5851,2.5851,2.585,2.5841,2.5828,2.5821,2.5815,2.581,2.5799,2.5784,2.5793,2.5787,2.5791,2.5781,2.5757,2.579,2.579,2.5785,2.573,2.5723,2.5719,2.5761,2.5761,2.576,2.5731,0,2.5819,2.5799,2.5807,2.5785,2.5777,2.5791,2.5779,2.5777,2.5779,2.5771,2.5772,2.5762,2.5774,2.5771,2.5761,2.5761,2.5746,2.5764,2.575,2.575,2.5752,2.5714,2.5706,2.5678,2.5727,2.5726,2.5726,0,2.5777,2.5774,2.5752,2.5755,2.5751,2.5741,2.5736,2.5729,2.5727,2.5729,2.5725,2.5731,2.5718,2.5733,2.5715,2.5727,2.5723,2.5722,2.5721,2.5719,2.5736,2.5711,2.567,2.5665,2.572,2.572,2.5721,0,2.5743,2.5732,2.5719,2.5717,2.572,2.5713,2.5714,2.5713,2.5709,2.5704,2.5701,2.5694,2.569,2.5684,2.5689,2.5699,2.567,2.5685,2.5671,2.5671,2.5664,2.5664,2.5621,2.5661,2.5661,2.5661,2.5661,0,2.5704,2.569,2.5704,2.5695,2.568,2.569,2.5675,2.5677,2.5677,2.5668,2.5679,2.567,2.5678,2.5669,2.5673,2.5658,2.5656,2.5657,2.5658,2.5656,2.5656,2.5652,2.5654,2.566,2.566,2.566,2.566,0,2.5663,2.5671,2.5657,2.5663,2.5664,2.5653,2.5656,2.5648,2.5652,2.5642,2.5639,2.5645,2.5636,2.5641,2.5631,2.5634,2.5615,2.5618,2.5616,2.5617,2.5603,2.5605,2.5556,2.5551,2.5594,2.5594,2.5593,0,2.5638,2.5628,2.5633,2.563,2.5631,2.5624,2.5621,2.5631,2.5627,2.5626,2.5618,2.5611,2.5606,2.5591,2.5593,2.5587,2.559,2.5574,2.5589,2.5588,2.5591,2.5591,2.5591,2.557,2.557,2.5569,2.5569,0,2.5593,2.5598,2.5594,2.5592,2.5589,2.5587,2.5586,2.5582,2.5593,2.5587,2.558,2.5577,2.5569,2.5562,2.5557,2.5556,2.5564,2.5565,2.5561,2.5559,2.5558,2.5559,2.5608,2.5565,2.5566,2.5566,2.5566,2.5566,2.5559,2.5552,2.5556,2.5551,2.5552,2.5552,2.5545,2.555,2.5545,2.5541,2.5547,2.5538,2.5538,2.5533,2.5531,2.5524,2.5531,2.5525,2.5524,2.5522,2.5521,2.556,2.5523,2.5523,2.5523,2.5523,2.5523,0,2.5515,2.5519,2.5515,2.5515,2.5512,2.5523,2.5523,2.5519,2.5512,2.5513,2.5509,2.5501,2.5495,2.5498,2.5493,2.5487,2.5491,2.5485,2.5485,2.5485,2.5515,2.5519,2.5482,2.5482,2.5482,2.5482,2.5482,2.5482,2.5492,2.5481,2.5488,2.5477,2.5481,2.5475,2.5474,2.5474,2.5474,2.5466,2.5462,2.5465,2.5467,2.5462,2.5457,2.5458,2.5456,2.5449,2.5451,2.5479,2.5483,2.5487,2.5491,2.5449,2.5448,2.5422,2.5422,2.5422]}]]